Tracking 20093 objects as of 15-Dec-2019
HD Live streaming from Space Station
objects crossing your sky now

COSMOS 2251 DEB

Track COSMOS 2251 DEB now!
10-day predictions


NORAD ID: 35448
Int'l Code: 1993-036AKS
Perigee: 752.8 km
Apogee: 771.8 km
Inclination: 73.9 °
Period: 99.9 minutes
Semi major axis: 7133 km
RCS: 0.0138 m2 (small)
Launch date: June 16, 1993
Source: Commonwealth of Independent States (former USSR) (CIS)
Launch site: PLESETSK MISSILE AND SPACE COMPLEX (PKMTR)

Note: This is SATELLITE DEBRIS
aabbcc
Your satellite tracking list
Your tracking list is empty




NASA's NSSDC Master Catalog

Two Line Element Set (TLE):
1 35448U 93036AKS 19348.38270871  .00000397  00000-0  13175-3 0  9995
2 35448  73.9089 240.6004 0013380 157.6115 202.5626 14.41010228557608
Source of the keplerian elements: AFSPC